Location:  
MeteoStar

Sort by weather type Sort by elevation Sort by visibility Sort from west to east north Sort from north to south Alphabetically Sort from strongest wind speed Sort from lowest to highest pressure Sort from highest to lowest dew point temperature Sort coolest temperatures to warmest Sort warm temperatures to coolest
 Metric

Current Observations for United Kingdom sorted from coolest to warmest

Sule Skerry09:00ZNot Avail.49 4681027.3E 14 4452
Edinburgh Airport08:50ZMist50 500.311025.2ENE 11 46134
Tain Range09:00ZNot Avail.50 46131027.4NE 7 4713
Cairngorm09:00ZNot Avail.50 3913SE 34 Gusting to 43 424084
Wick08:50ZMostly Cloudy52 5081027.2E 6 50127
Inverness / Dalcross08:50ZPartly Cloudy52 48141027.1NE 8 4929
Kinloss08:50ZClear52 46171027.1NNE 9 4922
Lossiemouth08:50ZClear52 45201027.1E 8 4942
Fair Isle08:50ZNot Avail.52 4981028.3NE 15 47187
Kirkwall Airport08:50ZClear54 48141028.2E 8 5268
Sumburgh Cape 08:50ZNot Avail.54 46141028.1NE 14 5016
Charterhall09:00ZNot Avail.54 5181024.6NNE 10 51367
Leuchars08:50ZNot Avail.55 45171025.1E 15 5539
Baltasound09:00ZNot Avail.55 46111029NE 12 5549
Lerwick09:00ZPartly Cloudy55 48121028.4NE 14 55269
Glen Ogle09:00ZNot Avail.55 3010SSW 3 551850
Drumalbin09:00ZNot Avail.55 51201023.7NE 11 55803
Eskdalemuir09:00ZNot Avail.55 5181023.5NNE 11 55793
Great Dun Fell09:00ZNot Avail.55 4713E 35 Gusting to 45 552778
Lake Vyrnwy09:00ZNot Avail.55 5571018.0E 7 Gusting to 26 551181
Sennybridge09:00ZShowers55 532.751016.2ENE 8 Gusting to 19 551007
Cairnwell09:00ZNot Avail.56 3913ESE 17 Gusting to 27 563061
Inverbervie09:00ZNot Avail.56 48151026NE 14 56439
Cardiff-Wales Airport08:50ZPartly Cloudy57 5741014.1NE 11 57219
Bristol / Lulsgate 08:50ZMist57 571.121015.1NE 11 57620
Scilly; Saint MaryS09:00ZMist57 571.871011.7ESE 10 57101
Shawbury08:50ZRain57 5531018.1N 5 57249
Aberdeen / Dyce08:50ZClear57 46141027.2N 5 57213
Glasgow Airport08:50ZClear57 50141024.1E 13 5726
Boulmer08:50ZClear57 5291024.1N 9 5775
Cardinham09:00ZMist58 581.871013.2SE 12 58656
Ballypatrick Forest09:00ZNot Avail.58 49201020.4ESE 19 Gusting to 26 58511
Glenanne09:00ZNot Avail.58 50201018.7E 8 58528
Belfast / Aldergrove Airport08:50ZNot Avail.59 50181019.2ENE 12 59265
Lyneham09:00ZNot Avail.59 5791016.0ENE 6 59475
Culdrose08:50ZCloudy59 570.751012.1SE 13 59255
St Athan Royal Air Force Base08:50ZShowers nearby59 5741014.1NE 12 59164
Valley08:50ZRain59 5551015.1NE 12 593
Scatsa / Shetland Island08:50ZClear59 450.311028.2ENE 11 5972
Stornoway08:50ZClear59 43251024.1E 11 5929
Cosford Royal Air Force Base08:50ZMist59 N/A31018.1SW 4 272
Prestwick Rnas09:00ZNot Avail.59 50201021.7NE 13 5985
Rhyl09:00ZNot Avail.59 5771018.5S 2 59252
Donna Nook09:00ZNot Avail.59 5391019.2ENE 20 5926
Camborne09:00ZMist59 591.121012.5SE 7 59285
Strathallan09:00ZNot Avail.60 49101025.4E 7 60114
Loftus Samos09:00ZNot Avail.60 53141022.5NE 5 60190
Shobdon09:00ZNot Avail.60 5651017.2ENE 5 60324
Mumbles09:00ZNot Avail.60 57121015.4ENE 17 60114
Little Rissington09:00ZNot Avail.60 5771015.7E 8 60705
Lough Fea09:00ZNot Avail.60 47201019.5ESE 7 60738
Belfast / Harbour08:50ZClear61 52181020.1NE 9 6116
Staverton Private 08:50ZPartly Cloudy61 5751016.1N 4 6195
Plymouth09:00ZHaze61 5941014SE 10 61164
Boscombe Down08:50ZHeavy Rain61 591.621015.0ENE 7 61406
Newcastle 08:50ZNot Avail.61 50201023.2ENE 7 61265
Tees-Side08:50ZNot Avail.61 52201022.1NNE 12 61121
Spadeadam08:50ZClear61 52201022.3ENE 18 611066
Prestwick Airport08:50ZClear61 500.311022.1NE 11 6165
Dundee / Riverside08:50ZNot Avail.61 500.311025.1ESE 13 6113
Fairford Royal Air Force Base08:56ZMist61 5761015.7NE 7 61285
Brize Norton08:50ZShowers61 5751016.1ENE 7 61288
Wainfleet09:00ZNot Avail.61 5591018.5ENE 18 Gusting to 25 619
Aboyne09:00ZNot Avail.61 42251026.1ESE 4 61459
Spadeadam09:00ZNot Avail.61 51181022.0ENE 18 61935
Pershore09:00ZHaze61 5761017NNE 5 61104
Milford Haven09:00ZNot Avail.61 56121014.5ESE 17 61144
Larkhill09:00ZNot Avail.61 590.871015.2NE 6 61433
Portglenone09:00ZNot Avail.61 5191019.5ESE 5 61209
South Uist Range09:00ZNot Avail.62 51151022.7NNE 8 6232
Loch Glascanoch09:00ZNot Avail.62 42301025.0ESE 12 62869
Redesdale09:00ZNot Avail.62 53161023.5ENE 9 62692
Weybourne09:00ZNot Avail.62 5581018.9E 17 6268
Dunkeswell Aerodrome09:00ZNot Avail.62 58121014.5SSE 7 62826
Isle Of Portland09:00ZNot Avail.62 5971014.9E 9 62173
Birmingham / Airport08:50ZShowers nearby63 5761017.1ENE 8 63324
Southampton / Weather Centre08:50ZClear63 5941015.1N 1 6329
Alderney / Channel Island08:50ZClear63 N/A41014.1SE 11 232
Guernsey Airport08:50ZClear63 5981014.1SE 12 63334
Leeds And Bradford08:50ZNot Avail.63 54251020.2ENE 12 63682
Pembrey Sands08:50ZMostly Cloudy63 5951015.1E 11 639
Machrihanish09:00ZNot Avail.63 50201019.7E 18 Gusting to 28 6342
Exeter Airport08:50ZPartly Cloudy63 5961014.1SE 9 6398
Aberporth09:00ZClear63 56131015.2E 8 63436
Middle Wallop08:50ZMostly Cloudy63 5931015.1NE 7 63298
Leeming08:50ZClear63 5481021.1NNE 13 63131
Carlisle09:00ZNot Avail.63 54191022N 6391
High Wicombe Hqstc09:00ZHaze63 5961016ESE 4 63669
Shoeburyness09:00ZNot Avail.63 5871015.5ENE 12 636
Saint Catherines Point09:00ZNot Avail.63 6071015.2ESE 3 6352
Chivenor09:00ZClear64 6191014ESE 12 6426
Yeovilton08:50ZPartly Cloudy64 59251015.1SE 3 6475
Jersey Airport08:50ZPartly Cloudy64 61101014.1SE 13 64275
Biggin Hill 08:50ZHaze64 6131016.0NE 4 64600
Lydd Airport 08:50ZNot Avail.64 6161015.1SE 8 649
East Midlands08:50ZNot Avail.64 57201018.1NE 12 64308
Benbecula08:50ZClear64 480.311023.1E 13 6419
Benson08:50ZPartly Cloudy64 5941016.1N 3 64206
Odiham08:50ZHaze64 5941015.0N 2 64403
Topcliffe Royal Air Force Base 08:50ZPartly Cloudy64 57121021.1NNW 8 6491
Holbeach09:00ZNot Avail.64 57101017.9ENE 16 649
Altnaharra09:00ZNot Avail.64 31301026.0ENE 9 64265
Dundrennan09:00ZNot Avail.64 53131019.5ENE 24 Gusting to 32 64374
Bingley09:00ZNot Avail.64 56121019.9E 11 64859
Aberdaron09:00ZNot Avail.64 55301016.4E 13 64311
Aviemore09:00ZNot Avail.65 42131024.4NNE 6 65721
Bridlington Mrsc09:00ZNot Avail.65 54141021.2ENE 17 6549
Trawscoed09:00ZNot Avail.65 57111016SE 6 Gusting to 16 65206
Castlederg09:00ZNot Avail.65 52301019.0ENE 7 65167
Farnborough08:50ZPartly Cloudy66 5941016.1N 1 66213
Southend-On-Sea 08:50ZNot Avail.66 5761015.1ENE 9 6649
Humberside08:50ZNot Avail.66 5561020.1ENE 12 66101
Hawarden08:50ZShowers nearby66 5561018.1NW 5 6632
Isle Of Man / Ronaldsway Airport08:50ZNot Avail.66 50201018.1ENE 19 6655
Tiree08:50ZClear66 50201021.1E 15 6639
Leconfield08:50ZClear66 57131020.1ENE 9 6619
Aultbea09:00ZNot Avail.66 45251024.1S 3 6636
Warcop Range09:00ZNot Avail.66 52131019.9E 25 Gusting to 41 66744
Fylingdales09:00ZNot Avail.66 5314E 17 Gusting to 25 66859
Nottingham Weather Centre09:00ZNot Avail.66 56151018.2NE 11 66383
Church Lawford09:00ZNot Avail.66 5971016.9E 6 66351
Kenley09:00ZHaze66 6241015.5ENE 3 66557
Thorney Island09:00ZNot Avail.66 6371014.9NNE 5 6613
Saint Helena Island09:00ZNot Avail.66 61201020.2SE 14 661427
West Freugh09:00ZNot Avail.67 51251019.5CALM6736
Bedford09:00ZNot Avail.67 60111016.5ENE 11 67278
Langdon Bay09:00ZNot Avail.67 6141015.7ESE 7 67383
Liverpool Airport 08:50ZNot Avail.68 541.121017.1ENE 14 6885
Luton Airport 08:50ZClear68 611.121016.1ENE 10 68524
Bournemouth Airport08:50ZPartly Cloudy68 63111015.1N 2 6836
London City Airport08:50ZClear68 5961015.1E 8 6816
London / Heathrow Airport08:50ZClear68 6181015.1N 3 6878
Northolt08:50ZNot Avail.68 5971015.1E 3 68124
Coningsby Royal Air Force Base08:50ZNot Avail.68 54201018.1E 15 6822
Wittering08:50ZClear68 59101016.1NE 11 68275
Linton-On-Ouse08:50ZMostly Cloudy68 54131020.1NE 11 6852
Cranwell08:50ZClear68 57111018.1ENE 14 68219
Manston09:00ZHaze69 6151015.5E 12 69180
Tulloch Bridge09:00ZNot Avail.69 48301024E 6 Gusting to 16 69777
Keswick09:00ZNot Avail.69 54171019.7E 14 Gusting to 27 69265
Gravesend-Broadness09:00ZNot Avail.69 6141015.2E 6 699
Herstmonceux09:00ZHaze69 6351015.2S 3 69170
Manchester Airport08:50ZClear70 5451017.1E 11 70226
Shoreham Airport08:50ZNot Avail.70 6341014.1NNE 8 706
London / Gatwick Airport08:50ZClear70 6361015.1N 2 70203
Blackpool Airport08:50ZNot Avail.70 5761018.1E 15 7032
Walney Island09:00ZNot Avail.70 53251018.5ENE 15 Gusting to 25 7049
Norwich Weather Centre08:50ZNot Avail.70 5761018.1E 14 7045
Stansted Airport08:50ZClear70 6161016.1E 12 70347
Wattisham08:50ZClear70 55121017.1E 11 70285
Waddington08:50ZNot Avail.70 55121018.1E 14 70223
Saint Bees Head09:00ZNot Avail.71 55251019NE 11 71406
Crosby09:00ZNot Avail.71 55251018E 10 7126
Cambridge08:50ZNot Avail.72 5961016.1E 6 7249
Mildenhall Royal Air Force Base08:56ZClear72 6851016.5E 15 7232
Marham08:50ZClear72 57131017.1E 12 7275
Lakenheath Royal Air Force Base08:56ZClear73 58131016.5ESE 15 7332


Atlantic
Tropical Watch